When you browse on this site, cookies collect data to enhance your experience and personalize the content and advertising you see.
Visit our Privacy Policy to learn more. By continuing to use the site, you agree to this use of cookies and data.
  • In Netherlands
  • List of Countries
  • For 7 days
  • Water Temperature
  • Weather Map
  • Weather Widgets
  • user-avatar
    Login

    Hourly Weather Camla

    Today, 19 January, Sunday

    Time Temperature Precipitation Wind Pressure Humidity
    00:00 -7°C° 0 mm 0 mps 644 mmHg 84%
    01:00 -7°C° 0 mm 0 mps 644 mmHg 82%
    02:00 -7°C° 0 mm 0 mps 644 mmHg 81%
    03:00 -7°C° 0 mm 1 mps 644 mmHg 81%
    04:00 -7°C° 0 mm 0 mps 644 mmHg 81%
    05:00 -7°C° 0 mm 0 mps 644 mmHg 81%
    06:00 -7°C° 0 mm 0 mps 644 mmHg 80%
    07:00 -7°C° 0 mm 0 mps 644 mmHg 79%
    08:00 -6°C° 0 mm 0 mps 645 mmHg 78%
    09:00 -6°C° 0 mm 0 mps 645 mmHg 76%
    10:00 -4°C° 0 mm 1 mps 645 mmHg 75%
    11:00 -4°C° 0 mm 1 mps 646 mmHg 73%
    12:00 -3°C° 0 mm 1 mps 646 mmHg 71%
    13:00 -3°C° 0 mm 1 mps 646 mmHg 72%
    14:00 -3°C° 0 mm 1 mps 646 mmHg 73%
    15:00 -3°C° 0 mm 1 mps 646 mmHg 74%
    16:00 -4°C° 0 mm 1 mps 646 mmHg 78%
    17:00 -6°C° 0 mm 1 mps 646 mmHg 82%
    18:00 -7°C° 0 mm 0 mps 646 mmHg 86%
    19:00 -7°C° 0 mm 0 mps 646 mmHg 85%
    20:00 -7°C° 0 mm 0 mps 646 mmHg 84%
    21:00 -7°C° 0 mm 0 mps 646 mmHg 83%
    22:00 -7°C° 0 mm 0 mps 646 mmHg 80%
    23:00 -7°C° 0 mm 0 mps 646 mmHg 77%

    Tomorrow, 20 January, Monday

    Time Temperature Precipitation Wind Pressure Humidity
    00:00 -7°C° 0 mm 1 mps 646 mmHg 74%
    01:00 -7°C° 0 mm 1 mps 646 mmHg 69%
    02:00 -7°C° 0 mm 1 mps 646 mmHg 64%
    03:00 -7°C° 0 mm 1 mps 646 mmHg 59%
    04:00 -7°C° 0 mm 1 mps 646 mmHg 55%
    05:00 -7°C° 0 mm 1 mps 646 mmHg 51%
    06:00 -7°C° 0 mm 1 mps 646 mmHg 47%
    07:00 -7°C° 0 mm 1 mps 647 mmHg 44%
    08:00 -6°C° 0 mm 1 mps 647 mmHg 42%
    09:00 -4°C° 0 mm 1 mps 648 mmHg 40%
    10:00 -3°C° 0 mm 1 mps 648 mmHg 38%
    11:00 -2°C° 0 mm 0 mps 648 mmHg 37%
    12:00 -1°C° 0 mm 0 mps 648 mmHg 35%
    13:00 -1°C° 0 mm 0 mps 648 mmHg 38%
    14:00 -1°C° 0 mm 0 mps 648 mmHg 41%
    15:00 -1°C° 0 mm 0 mps 648 mmHg 44%
    16:00 -2°C° 0 mm 0 mps 647 mmHg 42%
    17:00 -3°C° 0 mm 0 mps 647 mmHg 41%
    18:00 -3°C° 0 mm 1 mps 647 mmHg 40%
    19:00 -3°C° 0 mm 1 mps 647 mmHg 37%
    20:00 -3°C° 0 mm 1 mps 647 mmHg 35%
    21:00 -3°C° 0 mm 1 mps 647 mmHg 32%
    22:00 -4°C° 0 mm 1 mps 647 mmHg 32%
    23:00 -4°C° 0 mm 1 mps 646 mmHg 31%

    Day after tomorrow, 21 January, Tuesday

    Time Temperature Precipitation Wind Pressure Humidity
    00:00 -4°C° 0 mm 1 mps 646 mmHg 30%
    01:00 -4°C° 0 mm 1 mps 646 mmHg 30%
    02:00 -4°C° 0 mm 1 mps 646 mmHg 30%
    03:00 -4°C° 0 mm 1 mps 646 mmHg 30%
    04:00 -4°C° 0 mm 1 mps 645 mmHg 30%
    05:00 -6°C° 0 mm 1 mps 645 mmHg 30%
    06:00 -6°C° 0 mm 1 mps 645 mmHg 30%
    07:00 -4°C° 0 mm 1 mps 645 mmHg 32%
    08:00 -3°C° 0 mm 1 mps 646 mmHg 34%
    09:00 -3°C° 0 mm 1 mps 646 mmHg 36%
    10:00 -2°C° 0 mm 1 mps 646 mmHg 35%
    11:00 0°C° 0 mm 1 mps 646 mmHg 33%
    12:00 +1°C° 0 mm 1 mps 646 mmHg 32%
    13:00 +1°C° 0 mm 1 mps 646 mmHg 35%
    14:00 +1°C° 0 mm 1 mps 646 mmHg 38%
    15:00 +1°C° 0 mm 1 mps 646 mmHg 41%
    16:00 0°C° 0 mm 1 mps 646 mmHg 44%
    17:00 -2°C° 0 mm 1 mps 646 mmHg 47%
    18:00 -3°C° 0 mm 1 mps 645 mmHg 49%
    19:00 -3°C° 0 mm 1 mps 645 mmHg 48%
    20:00 -3°C° 0 mm 1 mps 645 mmHg 47%
    21:00 -5°C° 0 mm 2 mps 646 mmHg 45%
    22:00 -6°C° 0 mm 2 mps 645 mmHg 45%
    23:00 -6°C° 0 mm 2 mps 645 mmHg 44%

    22 January, Wednesday

    Time Temperature Precipitation Wind Pressure Humidity
    00:00 -6°C° 0 mm 2 mps 645 mmHg 43%
    01:00 -6°C° 0 mm 2 mps 645 mmHg 43%
    02:00 -6°C° 0 mm 2 mps 645 mmHg 43%
    03:00 -6°C° 0 mm 2 mps 645 mmHg 43%
    04:00 -6°C° 0 mm 2 mps 644 mmHg 43%
    05:00 -7°C° 0 mm 2 mps 644 mmHg 43%
    06:00 -7°C° 0 mm 2 mps 644 mmHg 43%
    07:00 -4°C° 0 mm 1 mps 644 mmHg 43%
    08:00 -3°C° 0 mm 1 mps 644 mmHg 43%
    09:00 -2°C° 0 mm 1 mps 644 mmHg 42%
    10:00 -1°C° 0 mm 1 mps 644 mmHg 41%
    11:00 0°C° 0 mm 1 mps 644 mmHg 39%
    12:00 0°C° 0 mm 0 mps 644 mmHg 37%
    13:00 +2°C° 0 mm 1 mps 644 mmHg 39%
    14:00 +2°C° 0 mm 1 mps 643 mmHg 42%
    15:00 +2°C° 0 mm 1 mps 643 mmHg 45%
    16:00 +1°C° 0 mm 1 mps 643 mmHg 46%
    17:00 0°C° 0 mm 1 mps 643 mmHg 47%
    18:00 0°C° 0 mm 1 mps 642 mmHg 48%
    19:00 0°C° 0 mm 1 mps 642 mmHg 48%
    20:00 -1°C° 0 mm 0 mps 642 mmHg 48%
    21:00 -1°C° 0 mm 0 mps 642 mmHg 48%
    22:00 -1°C° 0 mm 0 mps 641 mmHg 48%
    23:00 -1°C° 0 mm 1 mps 641 mmHg 48%

    23 January, Thursday

    Time Temperature Precipitation Wind Pressure Humidity
    00:00 -1°C° 0 mm 1 mps 640 mmHg 48%
    01:00 -1°C° 0 mm 1 mps 640 mmHg 48%
    02:00 -1°C° 0 mm 1 mps 639 mmHg 48%
    03:00 -1°C° 0 mm 1 mps 639 mmHg 48%
    04:00 -2°C° 0 mm 1 mps 638 mmHg 48%
    05:00 -2°C° 0 mm 1 mps 638 mmHg 47%
    06:00 -2°C° 0 mm 1 mps 637 mmHg 46%
    07:00 -4°C° 0 mm 2 mps 637 mmHg 46%
    08:00 -3°C° 0 mm 2 mps 637 mmHg 46%
    09:00 -3°C° 0 mm 2 mps 637 mmHg 45%
    10:00 -1°C° 0 mm 2 mps 637 mmHg 44%
    11:00 +1°C° 0 mm 2 mps 637 mmHg 43%
    12:00 +2°C° 0 mm 2 mps 636 mmHg 42%
    13:00 +2°C° 0 mm 2 mps 636 mmHg 46%
    14:00 +2°C° 0 mm 2 mps 635 mmHg 50%
    15:00 +1°C° 0 mm 2 mps 635 mmHg 54%
    16:00 -1°C° 0 mm 2 mps 634 mmHg 62%
    17:00 -3°C° 0 mm 2 mps 634 mmHg 70%
    18:00 -4°C° 0 mm 2 mps 634 mmHg 78%
    19:00 -5°C° 0.1 mm 2 mps 634 mmHg 82%
    20:00 -3°C° 0.1 mm 1 mps 634 mmHg 87%
    21:00 -3°C° 0.1 mm 1 mps 634 mmHg 91%
    22:00 -3°C° 0.1 mm 1 mps 635 mmHg 89%
    23:00 -3°C° 0.1 mm 1 mps 635 mmHg 87%

    24 January, Friday

    Time Temperature Precipitation Wind Pressure Humidity
    00:00 -3°C° 0.1 mm 1 mps 635 mmHg 85%
    01:00 -4°C° 0.5 mm 1 mps 636 mmHg 86%
    02:00 -4°C° 0.5 mm 1 mps 636 mmHg 86%
    03:00 -6°C° 0.5 mm 2 mps 636 mmHg 86%
    04:00 -6°C° 0.3 mm 2 mps 637 mmHg 87%
    05:00 -7°C° 0.3 mm 2 mps 637 mmHg 89%
    06:00 -7°C° 0.3 mm 2 mps 637 mmHg 90%
    07:00 -7°C° 0.1 mm 2 mps 638 mmHg 89%
    08:00 -7°C° 0.1 mm 2 mps 639 mmHg 87%
    09:00 -7°C° 0.1 mm 2 mps 639 mmHg 86%
    10:00 -7°C° 0.1 mm 2 mps 640 mmHg 84%
    11:00 -7°C° 0.1 mm 2 mps 640 mmHg 82%
    12:00 -7°C° 0.1 mm 2 mps 640 mmHg 80%
    13:00 -7°C° 0.2 mm 2 mps 640 mmHg 81%
    14:00 -7°C° 0.2 mm 2 mps 640 mmHg 82%
    15:00 -8°C° 0.2 mm 2 mps 640 mmHg 83%
    16:00 -8°C° 0.2 mm 2 mps 641 mmHg 85%
    17:00 -9°C° 0.2 mm 2 mps 641 mmHg 87%
    18:00 -8°C° 0.2 mm 1 mps 642 mmHg 90%
    19:00 -9°C° 0.1 mm 1 mps 642 mmHg 89%
    20:00 -9°C° 0.1 mm 1 mps 642 mmHg 89%
    21:00 -10°C° 0.1 mm 1 mps 643 mmHg 88%
    22:00 -10°C° 0 mm 1 mps 643 mmHg 86%
    23:00 -11°C° 0 mm 1 mps 643 mmHg 84%
    Show more